Back to catalog

OPS 4682 DEB

AlivePO
NORAD 55116·DEBRIS·🇺🇸 United States

Launched Apr 3, 1965 from Vandenberg Space Force Base

Loading…

Next Passes (next 24 hours)

TLE

FreshSource: Space-Track

Epoch: Sep 14, 2026, 06:22 UTC

1 55116U 65027HF  26257.26576513 -.00000661  00000-0 -22482-2 0  9990
2 55116  90.2501   9.1988 0033325 110.5780 249.8922 12.99015567525643

Track OPS 4682 DEB in real time with AllMySat

Download on the App Store